2020-051B (45940 NORAD) Tracking and Keplerian Element Data

This shows tracking and keplerian element data for the satellite.

Feedback or suggestion? Click here.




ElementValue
Catalog45940
Name2020-051B
Epoch Orbit273
Epoch Day225.16743376
Epoch Year2020
RAAN298.8791
Inclination97.4953
Eccentricity0.0011318
Argument of Perigee207.3625
Mean Anonmoly208.8021
Mean Motion15.24996077
Decay Rate1.324E-05
L11 45940U 20051B 20225.16743376 .00001324 00000-0 55958-4 0 9994
L22 45940 97.4953 298.8791 0011318 207.3625 208.8021 15.24996077 2737

Live tracking and technical data element details for 2020-051B (NORAD 45940). 2020-051B can be tracked NOW for your location showing map with azimuth and elevation plus other details from your city location.

Track the satellite on the map from your city or location and see movement details for azimuth, elevation, latitude, longitude, range, height, and movement on the map or in text.







IsCatalogInMostPopularTable: catalog: 45940, numindb: 1
Update: records affected: 1



GetName: 45940 2020-051B

Hit Count: updated at: Fri, 14 Aug 2020 05:41:40 GMT